TimeAKDT,TemperatureF,Dew PointF,Humidity,Sea Level PressureIn,VisibilityMPH,Wind Direction,Wind SpeedMPH,Gust SpeedMPH,PrecipitationIn,Events,Conditions,WindDirDegrees,DateUTC
12:16 AM,59.0,48.2,67,30.11,10.0,ESE,10.4,-,N/A,,Mostly Cloudy,120,2013-07-31 08:16:00
12:36 AM,60.8,48.2,63,30.10,10.0,SE,17.3,-,N/A,,Scattered Clouds,130,2013-07-31 08:36:00
12:56 AM,60.8,48.2,63,30.10,10.0,ESE,16.1,-,N/A,,Partly Cloudy,120,2013-07-31 08:56:00
1:16 AM,59.0,48.2,67,30.09,10.0,ESE,12.7,18.4,N/A,,Clear,120,2013-07-31 09:16:00
1:36 AM,60.8,48.2,63,30.09,10.0,ESE,11.5,-,N/A,,Clear,110,2013-07-31 09:36:00
1:56 AM,60.8,48.2,63,30.09,10.0,ESE,13.8,-,N/A,,Clear,110,2013-07-31 09:56:00
2:16 AM,60.8,48.2,63,30.08,10.0,ESE,12.7,-,N/A,,Clear,110,2013-07-31 10:16:00
2:36 AM,60.8,48.2,63,30.08,10.0,ESE,10.4,-,N/A,,Clear,110,2013-07-31 10:36:00
2:56 AM,60.8,48.2,63,30.07,10.0,ESE,12.7,-,N/A,,Mostly Cloudy,120,2013-07-31 10:56:00
3:16 AM,60.8,48.2,63,30.06,10.0,ESE,17.3,21.9,N/A,,Overcast,120,2013-07-31 11:16:00
3:36 AM,60.8,48.2,63,30.06,10.0,ESE,13.8,19.6,N/A,,Overcast,110,2013-07-31 11:36:00
3:56 AM,60.8,48.2,63,30.06,10.0,SE,6.9,-,N/A,,Overcast,130,2013-07-31 11:56:00
4:16 AM,59.0,48.2,67,30.05,10.0,ESE,12.7,17.3,N/A,,Overcast,110,2013-07-31 12:16:00
4:36 AM,60.8,50.0,68,30.04,10.0,SE,15.0,-,N/A,,Overcast,130,2013-07-31 12:36:00
4:56 AM,60.8,48.2,63,30.04,10.0,East,11.5,-,N/A,,Overcast,100,2013-07-31 12:56:00
5:16 AM,59.0,48.2,67,30.03,10.0,East,11.5,-,N/A,,Overcast,100,2013-07-31 13:16:00
5:36 AM,59.0,48.2,67,30.02,10.0,East,12.7,-,N/A,,Overcast,90,2013-07-31 13:36:00
5:56 AM,59.0,48.2,67,30.01,10.0,East,12.7,-,N/A,,Overcast,80,2013-07-31 13:56:00
6:16 AM,59.0,48.2,67,30.01,10.0,East,10.4,-,N/A,,Overcast,100,2013-07-31 14:16:00
6:36 AM,60.8,48.2,63,30.01,10.0,East,11.5,-,N/A,,Overcast,100,2013-07-31 14:36:00
6:56 AM,59.0,48.2,67,30.01,10.0,ESE,8.1,-,N/A,,Overcast,110,2013-07-31 14:56:00
7:16 AM,60.8,48.2,63,30.00,10.0,ESE,13.8,-,N/A,,Overcast,120,2013-07-31 15:16:00
7:36 AM,59.0,48.2,67,30.00,10.0,SE,13.8,-,N/A,,Overcast,130,2013-07-31 15:36:00
7:56 AM,59.0,48.2,67,29.99,10.0,ESE,15.0,20.7,N/A,,Overcast,110,2013-07-31 15:56:00
8:16 AM,59.0,48.2,67,29.99,10.0,ESE,12.7,-,N/A,,Overcast,110,2013-07-31 16:16:00
8:36 AM,-9999,-9999,N/A,-9999,-9999.0,North,-9999.0,-,N/A,,Unknown,0,2013-07-31 16:36:00
8:56 AM,-9999,-9999,N/A,-9999,-9999.0,North,-9999.0,-,N/A,,Unknown,0,2013-07-31 16:56:00
9:16 AM,-9999,-9999,N/A,-9999,-9999.0,North,-9999.0,-,N/A,,Unknown,0,2013-07-31 17:16:00
9:36 AM,-9999,-9999,N/A,-9999,-9999.0,North,-9999.0,-,N/A,,Unknown,0,2013-07-31 17:36:00
9:56 AM,-9999,-9999,N/A,-9999,-9999.0,North,-9999.0,-,N/A,,Unknown,0,2013-07-31 17:56:00
10:16 AM,-9999,-9999,N/A,-9999,-9999.0,North,-9999.0,-,N/A,,Unknown,0,2013-07-31 18:16:00
10:36 AM,-9999,-9999,N/A,-9999,-9999.0,North,-9999.0,-,N/A,,Unknown,0,2013-07-31 18:36:00
10:56 AM,-9999,-9999,N/A,-9999,-9999.0,North,-9999.0,-,N/A,,Unknown,0,2013-07-31 18:56:00
11:16 AM,-9999,-9999,N/A,-9999,-9999.0,North,-9999.0,-,N/A,,Unknown,0,2013-07-31 19:16:00
11:36 AM,-9999,-9999,N/A,-9999,-9999.0,North,-9999.0,-,N/A,,Unknown,0,2013-07-31 19:36:00
11:56 AM,-9999,-9999,N/A,-9999,-9999.0,North,-9999.0,-,N/A,,Unknown,0,2013-07-31 19:56:00
12:16 PM,-9999,-9999,N/A,-9999,-9999.0,North,-9999.0,-,N/A,,Unknown,0,2013-07-31 20:16:00
12:36 PM,-9999,-9999,N/A,-9999,-9999.0,North,-9999.0,-,N/A,,Unknown,0,2013-07-31 20:36:00
12:56 PM,-9999,-9999,N/A,-9999,-9999.0,North,-9999.0,-,N/A,,Unknown,0,2013-07-31 20:56:00
1:16 PM,-9999,-9999,N/A,-9999,-9999.0,North,-9999.0,-,N/A,,Unknown,0,2013-07-31 21:16:00
1:36 PM,-9999,-9999,N/A,-9999,-9999.0,North,-9999.0,-,N/A,,Unknown,0,2013-07-31 21:36:00
1:56 PM,-9999,-9999,N/A,-9999,-9999.0,North,-9999.0,-,N/A,,Unknown,0,2013-07-31 21:56:00
2:16 PM,-9999,-9999,N/A,-9999,-9999.0,North,-9999.0,-,N/A,,Unknown,0,2013-07-31 22:16:00
2:36 PM,-9999,-9999,N/A,-9999,-9999.0,North,-9999.0,-,N/A,,Unknown,0,2013-07-31 22:36:00
2:56 PM,-9999,-9999,N/A,-9999,-9999.0,North,-9999.0,-,N/A,,Unknown,0,2013-07-31 22:56:00
3:16 PM,66.2,62.6,88,29.93,-9999.0,SSE,24.2,-,N/A,,Unknown,150,2013-07-31 23:16:00
3:36 PM,64.4,50.0,59,29.93,10.0,SSE,20.7,27.6,N/A,,Mostly Cloudy,160,2013-07-31 23:36:00
3:56 PM,64.4,51.8,64,29.92,10.0,SSE,24.2,29.9,N/A,,Overcast,160,2013-07-31 23:56:00
4:16 PM,66.2,51.8,60,29.92,10.0,SSE,21.9,28.8,N/A,,Overcast,150,2013-08-01 00:16:00
4:36 PM,66.2,50.0,56,29.90,10.0,SSE,24.2,32.2,N/A,,Overcast,160,2013-08-01 00:36:00
4:56 PM,-9999,-9999,N/A,29.89,10.0,SSE,28.8,34.5,N/A,,Overcast,150,2013-08-01 00:56:00
5:16 PM,71.6,51.8,50,29.91,10.0,SE,23.0,33.4,N/A,,Mostly Cloudy,140,2013-08-01 01:16:00
5:36 PM,69.8,50.0,49,29.92,10.0,SSE,19.6,27.6,N/A,,Mostly Cloudy,150,2013-08-01 01:36:00
5:56 PM,66.2,50.0,56,29.92,10.0,SSE,19.6,26.5,N/A,,Overcast,160,2013-08-01 01:56:00
6:16 PM,64.4,50.0,59,29.92,10.0,SSE,17.3,-,N/A,,Overcast,150,2013-08-01 02:16:00
6:36 PM,64.4,50.0,59,29.91,10.0,SSE,24.2,28.8,N/A,,Overcast,160,2013-08-01 02:36:00
6:56 PM,64.4,50.0,59,29.92,10.0,SSE,19.6,-,N/A,,Overcast,150,2013-08-01 02:56:00
7:16 PM,64.4,50.0,59,29.91,10.0,SSE,20.7,-,N/A,,Overcast,150,2013-08-01 03:16:00
7:36 PM,64.4,50.0,59,29.90,10.0,SSE,18.4,-,N/A,,Overcast,150,2013-08-01 03:36:00
7:56 PM,66.2,50.0,56,29.89,10.0,ESE,19.6,28.8,N/A,,Overcast,120,2013-08-01 03:56:00
8:16 PM,66.2,50.0,56,29.90,10.0,ENE,16.1,24.2,N/A,,Mostly Cloudy,60,2013-08-01 04:16:00
8:36 PM,66.2,50.0,56,29.90,10.0,SE,8.1,-,N/A,,Mostly Cloudy,130,2013-08-01 04:36:00
8:56 PM,66.2,50.0,56,29.89,10.0,SSE,12.7,-,N/A,,Mostly Cloudy,160,2013-08-01 04:56:00
9:16 PM,62.6,50.0,63,29.89,10.0,SSE,17.3,-,N/A,,Overcast,150,2013-08-01 05:16:00
9:36 PM,62.6,48.2,59,29.89,10.0,SSE,15.0,-,N/A,,Overcast,160,2013-08-01 05:36:00
9:56 PM,62.6,48.2,59,29.88,10.0,South,15.0,-,N/A,,Overcast,170,2013-08-01 05:56:00
10:16 PM,62.6,50.0,63,29.88,10.0,SE,11.5,-,N/A,,Overcast,140,2013-08-01 06:16:00
10:36 PM,60.8,51.8,72,29.89,8.0,NE,6.9,-,0.02,,Scattered Clouds,50,2013-08-01 06:36:00
10:56 PM,57.2,51.8,82,29.90,6.0,SE,8.1,-,0.11,,Clear,130,2013-08-01 06:56:00
11:16 PM,57.2,51.8,82,29.90,8.0,SE,3.5,-,0.04,,Clear,140,2013-08-01 07:16:00
11:36 PM,57.2,50.0,77,29.90,10.0,East,3.5,-,0.04,,Mostly Cloudy,100,2013-08-01 07:36:00
11:56 PM,57.2,50.0,77,29.89,10.0,ENE,5.8,-,0.07,,Mostly Cloudy,70,2013-08-01 07:56:00